| time (UTC) | temp F | wind direction | speed knots | gust knots | rain 1hr in | rain 24hr in | rain mn in | humidity % | barometer mb |
| 20260505051504 | 65 | 148 | 0.0 | 0.0 | 0.00 | 0.00 | 0.00 | 72 | 1005.0 |
| 20260505041605 | 67 | 153 | 0.0 | 0.0 | 0.00 | 0.00 | 0.00 | 68 | 1005.6 |
| 20260505040059 | 68 | 153 | 0.0 | 0.0 | 0.00 | 0.00 | 0.00 | 68 | 1005.4 |
| 20260505034550 | 68 | 153 | 0.0 | 0.0 | 0.00 | 0.00 | 0.00 | 68 | 1005.5 |
| 20260505033050 | 68 | 153 | 0.0 | 0.0 | 0.00 | 0.00 | 0.00 | 67 | 1005.6 |
| 20260505031550 | 69 | 153 | 0.0 | 0.0 | 0.00 | 0.00 | 0.00 | 66 | 1005.6 |
| 20260505030049 | 69 | 153 | 0.0 | 0.0 | 0.00 | 0.00 | 0.00 | 66 | 1005.3 |
| 20260505024549 | 69 | 153 | 0.0 | 0.0 | 0.00 | 0.00 | 0.00 | 66 | 1005.2 |
| 20260505023051 | 69 | 153 | 0.0 | 0.0 | 0.00 | 0.00 | 0.00 | 66 | 1005.0 |
| 20260505021546 | 70 | 153 | 0.0 | 0.0 | 0.00 | 0.00 | 0.00 | 65 | 1004.9 |
| 20260505020046 | 70 | 153 | 0.0 | 0.0 | 0.00 | 0.00 | 0.00 | 64 | 1004.8 |
| 20260505014601 | 70 | 153 | 0.0 | 0.0 | 0.00 | 0.00 | 0.00 | 64 | 1004.7 |
| 20260505013043 | 71 | 153 | 0.0 | 0.0 | 0.00 | 0.00 | 0.00 | 64 | 1004.4 |
| 20260505011542 | 71 | 153 | 0.0 | 0.0 | 0.00 | 0.00 | 0.00 | 64 | 1004.3 |
| 20260505010042 | 72 | 153 | 0.0 | 0.9 | 0.00 | 0.00 | 0.00 | 62 | 1004.3 |
| 20260505004543 | 72 | 175 | 0.0 | 0.0 | 0.00 | 0.00 | 0.00 | 62 | 1004.2 |
| 20260505003039 | 73 | 180 | 0.0 | 0.0 | 0.00 | 0.00 | 0.00 | 61 | 1004.1 |
| 20260505001542 | 74 | 180 | 0.0 | 1.7 | 0.00 | 0.00 | 0.00 | 59 | 1004.1 |
| 20260505000046 | 74 | 184 | 0.0 | 0.9 | 0.00 | 0.00 | 0.00 | 58 | 1004.2 |
| 20260504234541 | 75 | 175 | 0.0 | 1.7 | 0.00 | 0.00 | 0.00 | 57 | 1004.3 |
| 20260504233033 | 76 | 170 | 0.9 | 3.5 | 0.00 | 0.00 | 0.00 | 56 | 1004.4 |
| 20260504231536 | 76 | 153 | 0.9 | 2.6 | 0.00 | 0.00 | 0.00 | 55 | 1004.5 |
| 20260504230030 | 77 | 180 | 0.0 | 3.5 | 0.00 | 0.00 | 0.00 | 53 | 1004.8 |
| 20260504224610 | 77 | 184 | 0.9 | 3.5 | 0.00 | 0.00 | 0.00 | 52 | 1004.8 |
| 20260504223059 | 77 | 186 | 0.0 | 3.5 | 0.00 | 0.00 | 0.00 | 51 | 1005.0 |
| 20260504221529 | 78 | 246 | 0.0 | 4.3 | 0.00 | 0.00 | 0.00 | 50 | 1004.9 |
| 20260504220026 | 78 | 234 | 0.9 | 5.2 | 0.00 | 0.00 | 0.00 | 49 | 1005.1 |
| 20260504214523 | 78 | 175 | 0.9 | 4.3 | 0.00 | 0.00 | 0.00 | 49 | 1005.3 |
| 20260504213043 | 78 | 210 | 1.7 | 8.7 | 0.00 | 0.00 | 0.00 | 49 | 1005.4 |
| 20260504211519 | 78 | 236 | 1.7 | 10.4 | 0.00 | 0.00 | 0.00 | 48 | 1005.5 |
| 20260504210020 | 78 | 195 | 0.0 | 7.8 | 0.00 | 0.00 | 0.00 | 50 | 1005.8 |
| 20260504204514 | 79 | 186 | 3.5 | 13.0 | 0.00 | 0.00 | 0.00 | 49 | 1005.9 |
| 20260504203012 | 79 | 218 | 0.9 | 5.2 | 0.00 | 0.00 | 0.00 | 48 | 1006.1 |
| 20260504201517 | 79 | 232 | 0.0 | 4.3 | 0.00 | 0.00 | 0.00 | 48 | 1006.5 |
| 20260504200007 | 78 | 147 | 0.9 | 5.2 | 0.00 | 0.00 | 0.00 | 48 | 1006.8 |
| 20260504194504 | 78 | 241 | 1.7 | 9.6 | 0.00 | 0.00 | 0.00 | 47 | 1007.0 |
| 20260504193002 | 78 | 180 | 0.0 | 8.7 | 0.00 | 0.00 | 0.00 | 50 | 1007.1 |
| 20260504191603 | 78 | 194 | 0.9 | 8.7 | 0.00 | 0.00 | 0.00 | 48 | 1007.3 |
| 20260504190116 | 78 | 196 | 1.7 | 8.7 | 0.00 | 0.00 | 0.00 | 50 | 1007.4 |
| 20260504184606 | 77 | 207 | 1.7 | 8.7 | 0.00 | 0.00 | 0.00 | 50 | 1007.6 |
| 20260504183054 | 78 | 188 | 0.9 | 5.2 | 0.00 | 0.00 | 0.00 | 50 | 1007.8 |
| 20260504181551 | 77 | 230 | 0.9 | 8.7 | 0.00 | 0.00 | 0.00 | 50 | 1007.8 |
| 20260504180050 | 77 | 224 | 0.9 | 5.2 | 0.00 | 0.00 | 0.00 | 49 | 1007.9 |
| 20260504174555 | 77 | 224 | 1.7 | 10.4 | 0.00 | 0.00 | 0.00 | 50 | 1008.1 |
| 20260504173050 | 76 | 180 | 1.7 | 6.1 | 0.00 | 0.00 | 0.00 | 51 | 1008.3 |
| 20260504171541 | 76 | 226 | 0.9 | 7.8 | 0.00 | 0.00 | 0.00 | 51 | 1008.5 |
| 20260504090111 | 62 | 191 | 0.0 | 0.0 | 0.00 | 0.00 | 0.00 | 70 | 1009.9 |
| 20260504081538 | 66 | 202 | 0.0 | 0.0 | 0.00 | 0.00 | 0.00 | 65 | 1010.0 |
| 20260504070127 | 68 | 222 | 0.0 | 0.0 | 0.00 | 0.00 | 0.00 | 62 | 1010.4 |